Pine Bluffs Muni, Pine Bluffs, WY

10:28 PM MST on November 11, 2019 (GMT -0700)
Pine Bluffs Muni, Pine Bluffs

Weather History for K82V - October, 2019

Change the Weather History Date:

Thursday, October 17, 2019

  Actual Average (KCYS) Record (KCYS)
Temperature  
Mean Temperature 54 °F -  
Max Temperature 77 °F 58 °F 79 °F (1926)
Min Temperature 32 °F 33 °F 6 °F (1948)
Degree Days  
Heating Degree Days 10    
Growing Degree Days 4 (Base 50)    
Moisture  
Dew Point 22 °F    
Average Humidity 43    
Maximum Humidity 80    
Minimum Humidity 9    
Precipitation  
Precipitation 0.00 in - - ()
Sea Level Pressure  
Sea Level Pressure 29.80 in    
Wind  
Wind Speed 4 mph (SSW)    
Max Wind Speed 10 mph    
Max Gust Speed -    
Visibility 10 miles    
Events      
Averages and records for this station are not official NWS values.
T = Trace of Precipitation, MM = Missing Value Source: NWS Daily Summary

Daily Weather History Graph

Daily Weather History Graph

Search for Another Location

Airport or City:

Astronomy

Oct. 17, 2019 Rise Set
Actual Time 7:10 AM MDT 6:12 PM MDT
Civil Twilight 6:42 AM MDT 6:40 PM MDT
Nautical Twilight 6:10 AM MDT 7:12 PM MDT
Astronomical Twilight 5:38 AM MDT 7:44 PM MDT
Moon 8:44 PM MDT (10/17) 10:46 AM MDT (10/17)
Length of Visible Light 11h 58m
Length of Day
11h 02m
Waning Gibbous, 86% of the Moon is Illuminated
Oct 17
Waning Gibbous
Oct 21
Last Quarter
Oct 27
New
Nov 4
First Quarter
Nov 12
Full

Hourly Weather History & Observations

Time (MDT) Temp. Windchill Dew Point Humidity Pressure Visibility Wind Dir Wind Speed Gust Speed Precip Events Conditions
12:15 AM 37.4 °F 33.8 °F 26.6 °F 65% 30.00 in 10.0 mi West 4.6 mph - N/A   Clear
12:35 AM 35.6 °F 30.7 °F 26.6 °F 70% 29.99 in 10.0 mi WSW 5.8 mph - N/A   Clear
12:55 AM 35.6 °F 31.7 °F 26.6 °F 70% 29.98 in 10.0 mi WSW 4.6 mph - N/A   Clear
1:15 AM 35.6 °F - 26.6 °F 70% 29.98 in 10.0 mi Calm Calm - N/A   Clear
1:35 AM 33.8 °F - 26.6 °F 75% 29.98 in 10.0 mi Calm Calm - N/A   Clear
1:55 AM 35.6 °F - 26.6 °F 70% 29.98 in 10.0 mi Calm Calm - N/A   Clear
2:15 AM 33.8 °F 27.7 °F 26.6 °F 75% 29.97 in 10.0 mi South 6.9 mph - N/A   Clear
2:35 AM 33.8 °F 30.8 °F 26.6 °F 75% 29.97 in 10.0 mi SSW 3.5 mph - N/A   Clear
2:55 AM 33.8 °F 28.6 °F 26.6 °F 75% 29.97 in 10.0 mi South 5.8 mph - N/A   Clear
3:15 AM 33.8 °F 27.7 °F 26.6 °F 75% 29.95 in 10.0 mi South 6.9 mph - N/A   Clear
3:35 AM 32.0 °F 27.5 °F 26.6 °F 80% 29.95 in 10.0 mi SSW 4.6 mph - N/A   Clear
3:55 AM 33.8 °F 26.4 °F 26.6 °F 75% 29.95 in 10.0 mi SSW 9.2 mph - N/A   Clear
4:15 AM 33.8 °F 27.0 °F 26.6 °F 75% 29.94 in 10.0 mi SSW 8.1 mph - N/A   Clear
4:35 AM 33.8 °F 27.0 °F 26.6 °F 75% 29.94 in 10.0 mi South 8.1 mph - N/A   Clear
4:55 AM 33.8 °F 28.6 °F 24.8 °F 70% 29.94 in 10.0 mi South 5.8 mph - N/A   Clear
5:15 AM 32.0 °F 26.4 °F 24.8 °F 75% 29.93 in 10.0 mi South 5.8 mph - N/A   Clear
5:35 AM 32.0 °F 25.6 °F 24.8 °F 75% 29.92 in 10.0 mi SSW 6.9 mph - N/A   Clear
5:55 AM 32.0 °F 28.7 °F 23.0 °F 69% 29.92 in 10.0 mi SW 3.5 mph - N/A   Clear
6:15 AM 32.0 °F 27.5 °F 21.2 °F 64% 29.92 in 10.0 mi SW 4.6 mph - N/A   Clear
6:35 AM 32.0 °F 24.8 °F 21.2 °F 64% 29.92 in 10.0 mi SSW 8.1 mph - N/A   Clear
6:55 AM 33.8 °F 27.7 °F 21.2 °F 60% 29.92 in 10.0 mi SSW 6.9 mph - N/A   Clear
7:15 AM 35.6 °F 30.7 °F 21.2 °F 56% 29.91 in 10.0 mi SSW 5.8 mph - N/A   Clear
7:35 AM 37.4 °F 34.9 °F 21.2 °F 52% 29.90 in 10.0 mi SW 3.5 mph - N/A   Clear
7:55 AM 33.8 °F 29.6 °F 24.8 °F 70% 29.90 in 10.0 mi WSW 4.6 mph - N/A   Clear
8:15 AM 42.8 °F - 23.0 °F 46% 29.90 in 10.0 mi Calm Calm - N/A   Clear
8:35 AM 42.8 °F - 23.0 °F 46% 29.90 in 10.0 mi Calm Calm - N/A   Clear
8:55 AM 46.4 °F - 23.0 °F 40% 29.89 in 10.0 mi Calm Calm - N/A   Clear
9:15 AM 48.2 °F - 30.2 °F 50% 29.88 in 10.0 mi Calm Calm - N/A   Clear
9:35 AM 50.0 °F - 30.2 °F 47% 29.87 in 10.0 mi Calm Calm - N/A   Clear
9:55 AM 51.8 °F - 30.2 °F 44% 29.87 in 10.0 mi South 4.6 mph - N/A   Clear
10:15 AM 55.4 °F - 30.2 °F 38% 29.86 in 10.0 mi SSW 5.8 mph - N/A   Clear
10:35 AM 60.8 °F - 30.2 °F 31% 29.86 in 10.0 mi SW 4.6 mph - N/A   Clear
10:55 AM 64.4 °F - 30.2 °F 28% 29.84 in 10.0 mi SW 3.5 mph - N/A   Clear
11:15 AM 68.0 °F - 23.0 °F 18% 29.83 in 10.0 mi South 5.8 mph - N/A   Clear
11:35 AM 73.4 °F - 21.2 °F 14% 29.82 in 10.0 mi SSW 6.9 mph - N/A   Clear
11:55 AM 73.4 °F - 14.0 °F 10% 29.80 in 10.0 mi South 5.8 mph - N/A   Clear
12:15 PM 73.4 °F - 17.6 °F 12% 29.80 in 10.0 mi SW 5.8 mph - N/A   Clear
12:35 PM 73.4 °F - 17.6 °F 12% 29.79 in 10.0 mi SSW 6.9 mph - N/A   Clear
12:55 PM 75.2 °F - 15.8 °F 11% 29.78 in 10.0 mi SSW 6.9 mph - N/A   Clear
1:15 PM 77.0 °F - 17.6 °F 11% 29.76 in 10.0 mi SW 10.4 mph - N/A   Clear
1:35 PM 77.0 °F - 17.6 °F 11% 29.75 in 10.0 mi SW 6.9 mph - N/A   Clear
1:55 PM 77.0 °F - 15.8 °F 10% 29.74 in 10.0 mi South 3.5 mph - N/A   Clear
2:15 PM 77.0 °F - 14.0 °F 9% 29.73 in 10.0 mi SSW 8.1 mph - N/A   Clear
2:35 PM 75.2 °F - 14.0 °F 10% 29.72 in 10.0 mi SW 8.1 mph - N/A   Clear
2:55 PM 77.0 °F - 12.2 °F 9% 29.71 in 10.0 mi South 5.8 mph - N/A   Clear
3:15 PM 77.0 °F - 12.2 °F 9% 29.70 in 10.0 mi South 4.6 mph - N/A   Clear
3:55 PM 73.4 °F - 12.2 °F 10% 29.70 in 10.0 mi South 4.6 mph - N/A   Clear
4:15 PM 77.0 °F - 12.2 °F 9% 29.69 in 10.0 mi South 6.9 mph - N/A   Clear
4:35 PM 71.6 °F - 14.0 °F 11% 29.68 in 10.0 mi SSE 6.9 mph - N/A   Clear
4:55 PM 69.8 °F - 14.0 °F 12% 29.68 in 10.0 mi SSE 4.6 mph - N/A   Clear
5:15 PM 68.0 °F - 15.8 °F 13% 29.67 in 7.0 mi Calm Calm - N/A   Clear
5:35 PM 66.2 °F - 14.0 °F 13% 29.66 in 5.0 mi Calm Calm - N/A   Haze
5:55 PM 62.6 °F - 17.6 °F 18% 29.66 in 10.0 mi Calm Calm - N/A   Clear
6:15 PM 57.2 °F - 21.2 °F 25% 29.65 in 10.0 mi Calm Calm - N/A   Clear
6:35 PM 51.8 °F - 23.0 °F 33% 29.65 in 10.0 mi Calm Calm - N/A   Clear
6:55 PM 51.8 °F - 21.2 °F 30% 29.65 in 10.0 mi SSE 4.6 mph - N/A   Clear
7:15 PM 51.8 °F - 23.0 °F 33% 29.65 in 10.0 mi SSE 5.8 mph - N/A   Clear
7:35 PM 51.8 °F - 23.0 °F 33% 29.65 in 10.0 mi NW 5.8 mph - N/A   Clear
7:55 PM 50.0 °F - 23.0 °F 35% 29.65 in 10.0 mi NW 3.5 mph - N/A   Clear
8:15 PM 50.0 °F - 21.2 °F 32% 29.64 in 10.0 mi Calm Calm - N/A   Clear
8:35 PM 50.0 °F - 21.2 °F 32% 29.63 in 10.0 mi Calm Calm - N/A   Clear
8:55 PM 42.8 °F - 26.6 °F 53% 29.63 in 10.0 mi Calm Calm - N/A   Clear
9:15 PM 41.0 °F 38.0 °F 26.6 °F 57% 29.63 in 10.0 mi West 4.6 mph - N/A   Clear
9:35 PM 41.0 °F 38.0 °F 24.8 °F 53% 29.63 in 10.0 mi WSW 4.6 mph - N/A   Clear
9:55 PM 37.4 °F 32.8 °F 23.0 °F 56% 29.61 in 10.0 mi West 5.8 mph - N/A   Clear
10:15 PM 37.4 °F 31.4 °F 21.2 °F 52% 29.62 in 10.0 mi West 8.1 mph - N/A   Clear
10:35 PM 37.4 °F - 21.2 °F 52% 29.61 in 10.0 mi Calm Calm - N/A   Clear
10:55 PM 35.6 °F 28.6 °F 21.2 °F 56% 29.61 in 10.0 mi West 9.2 mph - N/A   Clear
11:15 PM 37.4 °F 32.1 °F 21.2 °F 52% 29.61 in 10.0 mi West 6.9 mph - N/A   Clear
11:35 PM 37.4 °F - 19.4 °F 48% 29.61 in 10.0 mi Calm Calm - N/A   Clear
11:55 PM 35.6 °F - 21.2 °F 56% 29.61 in 10.0 mi Calm Calm - N/A   Clear